STELLA

Last updated on Wed Nov 05 2025 00:03:37 GMT+0000 (Coordinated Universal Time)

1 22824U 93061B 25308.63304508 -.00000014 00000+0 12941-4 0 9990 2 22824 98.8065 6.7096 0006665 161.1664 12.0239 14.27461775672738
UTC large
Height (km)
Speed (km/s)
/
Latitude / Longitude
Inclination (degrees)
Orbital Period (minutes)
Azimuth
Elevation
Range (km)
Doppler Factor

Next 0 passes for location: London (51.5072 / 0.1276)

Sorry there are no passes over London.